DELTA 1 DEB, 21565

Orbit data source: Space-Track

DELTA 1 DEB, 21565 is space debris in SSO originally from a launch on Thu, 12 Jun 1975 UTC launched from the Air Force Western Test Range (AFWTR). Debris objects in space refer to the collection of defunct objects orbiting the Earth. Examples of debris include non-operational satellites, rocket bodies, and fragments generated from explosions, collisions, or faulty payload assembly.

Loading next visibility...
Identifier
21565, 1975-052HK
Orbit
SSO
Country
Flag of USUS
Related business
Manufacturer
Unknown
Mission
Spacecraft
Bus & Motor
Unknown
Mass
Unknown
Launch date (UTC)
1975-06-12 (51 years ago)
Launch vehicle
Unknown
Launch site
Air Force Western Test Range (AFWTR)
Object type
Payload
Rocket body
Debris
Shape & HBR
Unknown shape, 0.2 m
Radar Cross Section
Medium (>0.1 m² and <1 m²)

Expand to show TLE details & history
Last TLE update: 2 days ago

TLE from 2 days ago
0 DELTA 1 DEB
1 21565U 75052HK  26170.91435544  .00000818  00000-0  27875-2 0  9997
2 21565  99.8282 301.6426 0360054 319.6679 167.2017 12.81877452634507
Epoch: 2026-06-19T21:56Z
TLE epoch observation values (Epoch: 2026-06-19T21:56:40.310Z)
Latitude
51.27207°
Longitude
-103.24726°
Altitude
1,613.33 km
Speed
6.943 km/s
True Right ascension
08h 56m 13s
True Declination
51° 07' 20"
Sunlit
Object was in daylight at epoch
Visualization orbit readout
Latitude
Unknown
Longitude
Unknown
Altitude
Unknown
Speed
Unknown
Apparent Right ascension
Unknown
Apparent Declination
Unknown
Sunlit
N/A
Visualization observer readout
Local Sidereal Time
11:18:27
Azimuth
Unknown
Elevation
Unknown
Doppler factor
Unknown
Orbital elements
Apogee altitude
1,608.908 km
Perigee altitude
1,053.743 km
Semi-major axis
7,709.462 km
Eccentricity
0.03601
Inclination
99.8282°
RAAN
301.6426°
Arg. of periapsis
319.6679°
True anomaly
168.07715°
Mean anomaly
167.2017°
Eccentric anomaly
167.64317°
Mean motion
3.20632 °/min
Orbital period
112.28 mins
BSTAR
0.0027875
Loading maneuver chart data...
Computing Atmospheric mass density...
Loading historical data...
Loading historical data...
Loading historical data...
Loading historical data...
Loading historical data...
Loading historical data...
Loading historical data...

Documentation

Showing up to 5 results
|